Date,TemperatureHighF,TemperatureAvgF,TemperatureLowF,DewpointHighF,DewpointAvgF,DewpointLowF,HumidityHigh,HumidityAvg,HumidityLow,PressureMaxIn,PressureMinIn,WindSpeedMaxMPH,WindSpeedAvgMPH,GustSpeedMaxMPH,PrecipitationSumIn
2013-1-1,41.0,34.0,30.0,99.9,99.9,99.9,0,0,100,30.27,30.14,5,0,5,0.00
2013-1-2,46.0,34.3,28.0,99.9,96.7,-51.2,35,1,2,30.14,30.01,9,1,9,0.01
2013-1-3,43.0,35.7,27.0,99.9,65.0,-53.7,63,18,3,30.01,29.93,17,3,17,0.01
2013-1-4,44.0,41.6,38.0,99.9,99.9,99.9,0,0,100,30.12,29.97,15,4,15,0.00
2013-1-5,44.0,41.3,38.0,99.9,99.9,99.9,0,0,100,30.02,29.93,23,5,23,0.24
2013-1-6,44.0,41.2,36.0,99.9,99.9,99.9,0,0,100,29.99,29.82,20,7,20,0.25
2013-1-7,48.0,42.7,37.0,99.9,99.9,99.9,0,0,100,29.98,29.70,22,8,22,0.25
2013-1-8,47.0,42.8,39.0,99.9,99.9,99.9,0,0,100,29.99,29.61,16,3,16,0.99
2013-1-9,45.0,41.3,37.0,99.9,99.9,99.9,0,0,100,29.81,29.60,20,5,20,0.12
2013-1-10,39.0,35.1,29.0,99.9,98.6,-36.3,21,0,4,29.96,29.81,13,2,13,0.09
2013-1-11,38.0,31.6,26.0,99.9,32.2,-61.8,77,44,1,30.12,29.96,16,4,16,0.00
2013-1-12,38.0,28.8,23.0,99.9,78.6,-57.4,66,10,1,30.20,30.09,13,1,13,0.00
2013-1-13,34.0,30.1,24.0,99.9,87.9,-58.0,14,0,1,30.24,30.19,8,1,8,0.00
2013-1-14,35.0,34.0,33.0,99.9,99.9,99.9,0,0,100,30.32,30.22,12,3,12,0.01
2013-1-15,42.0,36.1,30.0,99.9,99.9,-53.0,0,0,100,30.43,30.32,7,0,7,0.00
2013-1-16,45.0,36.1,27.0,99.9,86.1,-53.7,23,1,1,30.41,30.26,8,1,8,0.00
2013-1-17,47.0,34.0,26.0,99.9,99.9,99.9,0,0,100,30.27,30.09,6,0,6,0.01
2013-1-18,41.0,35.2,30.0,99.9,99.9,99.9,0,0,100,30.13,30.07,6,0,6,0.01
2013-1-19,44.0,35.1,30.0,99.9,99.9,99.9,0,0,100,30.18,30.12,7,0,7,0.00
2013-1-20,47.0,34.1,27.0,99.9,99.9,99.9,0,0,100,30.20,30.06,4,0,4,0.01
2013-1-21,45.0,34.0,26.0,99.9,99.9,99.9,0,0,100,30.06,29.96,6,0,6,0.01
2013-1-22,39.0,34.6,30.0,99.9,99.9,99.9,0,0,100,29.97,29.79,6,0,6,0.00
2013-1-23,43.0,39.9,36.0,99.9,99.9,99.9,0,0,100,29.96,29.73,10,2,10,0.22
2013-1-24,44.0,40.7,36.0,99.9,99.9,99.9,0,0,100,30.02,29.86,20,7,20,0.02
2013-1-25,49.0,41.9,37.0,99.9,99.9,99.9,0,0,100,29.94,29.78,20,3,20,0.00
2013-1-26,43.0,40.1,37.0,99.9,99.9,99.9,0,0,100,29.88,29.75,20,4,20,0.25
2013-1-27,41.0,38.8,36.0,99.9,99.9,99.9,0,0,100,29.89,29.84,12,2,12,0.33
2013-1-28,42.0,39.1,35.0,99.9,99.9,99.9,0,0,100,29.91,29.84,10,1,10,0.07
2013-1-29,45.0,42.1,38.0,99.9,99.9,99.9,0,0,100,30.12,29.91,10,2,10,0.20
2013-1-30,48.0,44.8,43.0,99.9,99.9,99.9,0,0,100,30.18,30.12,12,2,12,0.04
2013-1-31,46.0,44.2,39.0,99.9,99.9,99.9,0,0,100,30.17,30.11,13,4,13,0.07
2013-2-1,50.0,42.1,37.0,99.9,99.9,99.9,0,0,100,30.22,30.13,7,0,7,0.00
2013-2-2,49.0,40.7,34.0,99.9,99.9,99.9,0,0,100,30.19,30.07,9,1,9,0.01
2013-2-3,44.0,41.4,39.0,99.9,99.9,99.9,0,0,100,30.12,30.02,9,2,9,0.13
2013-2-4,46.0,42.7,39.0,99.9,99.9,99.9,0,0,100,30.02,29.74,10,3,10,0.01
2013-2-5,48.0,43.9,39.0,99.9,99.9,99.9,0,0,100,29.80,29.70,22,6,22,0.01
2013-2-6,47.0,43.8,40.0,99.9,95.8,-49.3,17,0,2,29.87,29.68,24,10,24,0.01
2013-2-7,48.0,40.9,33.0,99.9,93.5,-49.9,14,0,3,30.01,29.67,26,5,26,0.00
2013-2-8,45.0,38.2,31.0,99.9,99.9,99.9,0,0,100,30.13,30.01,12,0,12,0.01
2013-2-9,43.0,39.6,36.0,99.9,99.9,99.9,0,0,100,30.14,30.07,5,0,5,0.00
2013-2-10,46.0,37.9,29.0,99.9,99.9,99.9,0,0,100,30.19,30.13,7,0,7,0.01
2013-2-11,43.0,41.0,39.0,99.9,99.9,99.9,0,0,100,30.15,30.12,12,3,12,0.00
2013-2-12,47.0,44.3,42.0,99.9,99.9,99.9,0,0,100,30.19,30.08,17,4,17,0.01
2013-2-13,50.0,43.8,39.0,99.9,99.9,99.9,0,0,100,30.25,30.10,12,2,12,0.00
2013-2-14,44.0,42.2,39.0,99.9,99.9,99.9,0,0,100,30.33,30.25,8,2,8,0.24
2013-2-15,51.0,43.2,37.0,99.9,99.9,99.9,0,0,100,30.33,30.00,9,0,9,0.01
2013-2-16,51.0,43.5,37.0,99.9,99.9,-48.1,0,0,100,30.02,29.96,17,4,17,0.01
2013-2-17,45.0,40.1,35.0,99.9,99.9,99.9,0,0,100,30.07,29.95,15,3,15,0.01
2013-2-18,44.0,40.2,36.0,99.9,99.9,99.9,0,0,100,29.95,29.67,16,6,16,0.01
2013-2-19,48.0,40.4,32.0,99.9,79.5,-51.2,77,21,9,29.85,29.66,14,3,14,0.00
2013-2-20,43.0,39.1,32.0,99.9,99.9,99.9,0,0,100,29.89,29.84,13,4,13,0.05
2013-2-21,45.0,41.1,39.0,99.9,99.9,99.9,0,0,100,29.91,29.86,18,8,18,0.15
2013-2-22,46.0,40.8,38.0,99.9,99.9,99.9,0,0,100,29.89,29.58,31,11,31,0.29
2013-2-23,50.0,42.8,39.0,99.9,65.0,-53.0,78,27,2,30.14,29.74,18,5,18,0.00
2013-2-24,45.0,42.4,39.0,99.9,99.9,99.9,0,0,100,30.16,29.76,34,15,34,0.00
2013-2-25,50.0,42.8,37.0,99.9,73.6,-51.2,79,23,2,30.08,29.74,33,10,33,0.10
2013-2-26,44.0,41.4,36.0,99.9,76.5,-52.4,76,16,2,30.13,29.98,26,9,26,0.00
2013-2-27,48.0,41.0,37.0,99.9,99.9,99.9,0,0,100,30.14,30.00,12,2,12,0.01
2013-2-28,48.0,43.3,39.0,99.9,99.9,99.9,0,0,100,30.10,30.01,15,4,15,0.33
2013-3-1,55.0,49.4,46.0,99.9,99.9,99.9,0,0,100,30.12,30.07,21,7,21,0.27
2013-3-2,51.0,45.2,39.0,99.9,99.9,99.9,0,0,100,30.07,29.92,20,4,20,0.02
2013-3-3,51.0,38.9,30.0,99.9,81.7,-42.2,76,17,12,30.12,30.00,10,1,10,0.00
2013-3-4,49.0,40.0,30.0,99.9,64.9,-53.7,76,32,5,30.10,29.84,12,2,12,0.00
2013-3-5,47.0,43.1,38.0,99.9,50.1,-27.8,76,51,24,29.84,29.67,15,4,15,0.07
2013-3-6,42.0,40.2,39.0,99.9,99.9,99.9,0,0,100,29.78,29.57,13,3,13,0.24
2013-3-7,45.0,40.3,33.0,99.9,99.9,99.9,0,0,100,29.95,29.78,12,3,12,0.11
2013-3-8,51.0,39.5,32.0,99.9,93.4,-51.8,78,6,1,30.05,29.93,10,1,10,0.00
2013-3-9,51.0,40.2,32.0,99.9,99.9,99.9,0,0,100,30.26,30.05,9,1,9,0.01
2013-3-10,44.0,41.2,38.0,99.9,99.9,99.9,0,0,100,30.25,30.21,10,2,10,0.01
2013-3-11,51.0,44.0,38.0,99.9,86.7,-32.3,78,13,3,30.23,29.96,14,2,14,0.09
2013-3-12,52.0,48.2,45.0,99.9,99.9,99.9,0,0,100,29.97,29.86,23,10,23,0.38
2013-3-13,50.0,48.8,48.0,99.9,99.9,99.9,0,0,100,30.02,29.93,20,9,20,0.18
2013-3-14,51.0,47.7,45.0,99.9,99.9,99.9,0,0,100,29.99,29.88,15,3,15,0.18
2013-3-15,56.0,48.5,43.0,99.9,99.9,99.9,0,0,100,30.07,29.97,12,2,12,0.01
2013-3-16,47.0,42.9,39.0,99.9,99.9,99.9,0,0,100,29.97,29.77,20,4,20,0.15
2013-3-17,48.0,40.4,31.0,99.9,66.9,-42.8,81,33,2,30.02,29.81,20,6,20,0.00
2013-3-18,51.0,41.9,33.0,99.9,66.3,-39.2,80,33,2,30.06,29.91,17,5,17,0.14
2013-3-19,48.0,41.9,33.0,99.9,64.3,-50.6,80,29,4,30.04,29.51,26,9,26,0.00
2013-3-20,52.0,45.4,38.0,99.9,74.2,-54.3,79,18,3,29.84,29.33,32,16,32,0.08
2013-3-21,46.0,39.6,36.0,99.9,79.8,-54.9,42,3,1,30.02,29.84,20,7,20,0.01
2013-3-22,48.0,37.6,28.0,99.9,67.2,-45.5,81,28,3,30.16,30.02,13,2,13,0.00
2013-3-23,50.0,38.9,31.0,99.9,70.0,-53.0,81,24,2,30.21,30.10,12,2,12,0.00
2013-3-24,53.0,41.2,32.0,99.9,58.7,-44.2,81,32,3,30.11,29.97,13,4,13,0.00
2013-3-25,58.0,44.9,35.0,99.9,66.8,-53.0,82,26,1,29.99,29.84,9,1,9,0.00
2013-3-26,56.0,44.9,35.0,99.9,79.1,-35.5,81,23,31,29.94,29.85,7,0,7,0.00
2013-3-27,59.0,46.1,36.0,99.9,85.5,-43.8,76,17,18,29.90,29.83,10,0,10,0.00
2013-3-28,59.0,46.4,37.0,99.9,89.0,-47.5,69,8,6,30.00,29.88,12,1,12,0.00
2013-3-29,62.0,46.2,38.0,99.9,94.8,-46.2,75,6,2,30.13,29.99,9,0,9,0.00
2013-3-30,63.0,47.6,33.0,99.9,77.3,-43.1,78,27,5,30.14,29.96,10,1,10,0.00
2013-3-31,66.0,50.6,39.0,99.9,70.9,-38.2,76,25,2,29.98,29.84,12,1,12,0.00
2013-4-1,57.0,47.0,40.0,99.9,99.9,99.9,0,0,100,29.99,29.85,15,4,15,0.00
2013-4-2,54.0,47.7,43.0,99.9,99.0,-45.0,4,0,1,30.07,29.99,13,2,13,0.00
2013-4-3,59.0,49.7,44.0,99.9,87.4,-43.1,79,14,1,30.05,29.86,9,1,9,0.00
2013-4-4,53.0,48.2,44.0,99.9,99.9,99.9,0,0,100,29.86,29.57,20,2,20,0.32
2013-4-5,58.0,50.5,46.0,99.9,99.9,99.9,0,0,100,29.79,29.61,23,5,23,0.09
2013-4-6,55.0,48.5,43.0,99.9,84.7,-46.8,82,14,1,29.82,29.60,26,9,26,0.03
2013-4-7,51.0,43.8,41.0,99.9,99.9,99.9,0,0,100,29.77,29.53,10,3,10,0.39
2013-4-8,54.0,45.9,41.0,99.9,99.9,-46.2,0,0,100,30.08,29.78,10,2,10,0.01
2013-4-9,51.0,46.5,41.0,99.9,94.2,-47.5,7,0,1,30.17,30.00,18,4,18,0.00
2013-4-10,52.0,48.3,44.0,99.9,89.8,-47.5,11,0,1,30.05,29.79,24,12,24,0.27
2013-4-11,54.0,45.3,39.0,99.9,74.0,-53.0,82,20,1,30.15,30.00,15,4,15,0.00
2013-4-12,43.0,40.4,36.0,99.9,99.9,99.9,0,0,100,30.00,29.60,17,5,17,0.21
2013-4-13,49.0,40.6,35.0,99.9,96.9,-35.8,12,0,5,29.84,29.64,17,6,17,0.05
2013-4-14,52.0,41.7,34.0,99.9,88.0,-48.1,80,13,1,29.91,29.81,12,2,12,0.07
2013-4-15,58.0,44.7,36.0,99.9,82.5,-34.2,78,17,3,30.02,29.81,12,2,12,0.09
2013-4-16,58.0,45.5,35.0,99.9,66.4,-54.3,79,29,4,30.20,30.01,12,1,12,0.00
2013-4-17,54.0,46.5,36.0,99.9,67.9,-46.8,83,28,1,30.26,30.17,16,5,16,0.00
2013-4-18,48.0,45.0,42.0,99.9,99.9,99.9,0,0,100,30.24,30.02,17,7,17,0.22
2013-4-19,57.0,48.3,46.0,99.9,99.9,99.9,0,0,100,30.02,29.94,15,4,15,0.55
2013-4-20,55.0,49.3,45.0,99.9,75.9,-45.0,85,24,4,30.11,30.02,16,6,16,0.00
2013-4-21,54.0,45.1,37.0,99.9,70.0,-48.7,76,18,2,30.18,30.05,17,3,17,0.00
2013-4-22,61.0,46.1,33.0,99.9,56.6,-18.3,80,31,9,30.36,30.18,14,2,14,0.00
2013-4-23,60.0,47.0,35.0,99.9,64.1,-42.8,84,36,2,30.21,30.11,10,1,10,0.00
2013-4-24,67.0,50.6,37.0,99.9,66.9,-46.2,77,31,7,30.18,29.92,9,0,9,0.00
2013-4-25,67.0,52.2,39.0,99.9,77.0,-43.8,78,26,3,30.03,29.91,14,2,14,0.00
2013-4-26,59.0,49.5,41.0,99.9,83.7,-35.5,80,17,2,30.12,30.00,15,5,15,0.00
2013-4-27,53.0,48.4,44.0,99.9,99.9,99.9,0,0,100,30.06,29.98,14,3,14,0.00
2013-4-28,54.0,46.4,38.0,99.9,72.1,-36.9,82,34,13,30.08,29.82,15,5,15,0.02
2013-4-29,53.0,46.2,42.0,99.9,58.0,-27.1,82,46,8,29.99,29.82,17,6,17,0.05
2013-4-30,54.0,44.9,36.0,99.9,47.1,-41.5,81,42,3,30.22,29.99,14,3,14,0.00
2013-5-1,61.0,47.1,34.0,99.9,61.4,-22.8,79,37,12,30.40,30.21,10,2,10,0.00
2013-5-2,61.0,50.2,36.0,99.9,56.2,-53.7,81,40,1,30.33,30.21,10,2,10,0.00
2013-5-3,70.0,55.4,43.0,99.9,70.3,-48.1,81,28,7,30.25,30.10,16,3,16,0.00
2013-5-4,74.0,59.9,44.0,99.9,62.1,-43.8,81,38,2,30.15,29.92,15,2,15,0.00
2013-5-5,79.0,62.3,45.0,99.9,59.3,-47.5,77,35,3,29.94,29.76,7,0,7,0.00
2013-5-6,78.0,61.9,47.0,99.9,64.4,-39.5,78,29,2,29.86,29.74,13,1,13,0.00
2013-5-7,64.0,51.8,46.0,99.9,94.6,-41.9,21,1,1,29.90,29.74,17,4,17,0.00
2013-5-8,60.0,51.8,45.0,99.9,99.5,-41.9,5,0,5,30.04,29.89,15,5,15,0.00
2013-5-9,63.0,51.4,43.0,99.9,91.8,-41.3,74,7,1,30.11,30.00,12,4,12,0.00
2013-5-10,65.0,52.6,44.0,99.9,89.3,-40.7,29,2,5,30.10,30.00,10,2,10,0.00
2013-5-11,69.0,54.8,45.0,99.9,78.3,-41.9,79,27,5,30.05,29.92,9,2,9,0.05
2013-5-12,61.0,55.6,51.0,99.9,99.9,99.9,0,0,100,29.99,29.91,10,2,10,0.28
2013-5-13,62.0,52.7,47.0,99.9,99.9,99.9,0,0,100,30.03,29.85,18,4,18,0.10
2013-5-14,61.0,51.9,45.0,99.9,76.7,-43.1,82,25,2,30.10,29.99,12,2,12,0.00
2013-5-15,63.0,51.7,43.0,99.9,82.1,-33.6,76,23,7,30.00,29.91,12,2,12,0.04
2013-5-16,66.0,54.5,46.0,99.9,90.3,-40.1,79,12,1,29.92,29.84,10,2,10,0.04
2013-5-17,58.0,51.6,45.0,99.9,99.9,99.9,0,0,100,29.94,29.84,9,2,9,0.10
2013-5-18,59.0,52.1,48.0,99.9,99.9,99.9,0,0,100,30.11,29.94,9,2,9,0.07
2013-5-19,62.0,53.4,43.0,99.9,81.3,-45.6,79,26,6,30.26,30.11,12,2,12,0.00
2013-5-20,60.0,51.4,42.0,99.9,83.5,-43.8,53,8,2,30.17,29.84,12,2,12,0.00
2013-5-21,58.0,48.4,44.0,99.9,91.8,-43.8,81,7,7,29.85,29.74,10,1,10,0.22
2013-5-22,58.0,49.7,43.0,99.9,86.3,-45.0,81,15,5,29.86,29.76,13,3,13,0.24
2013-5-23,60.0,49.9,44.0,99.9,77.7,-43.1,82,22,3,29.92,29.83,20,5,20,0.01
2013-5-24,61.0,51.8,43.0,99.9,78.3,-44.4,79,21,2,29.95,29.86,14,3,14,0.00
2013-5-25,64.0,52.8,47.0,99.9,81.9,-46.2,81,15,1,29.96,29.89,12,2,12,0.04
2013-5-26,60.0,52.0,47.0,99.9,99.9,99.9,0,0,100,29.93,29.85,10,2,10,0.47
2013-5-27,57.0,53.1,47.0,99.9,99.9,99.9,0,0,100,29.85,29.66,17,7,17,0.21
2013-5-28,63.0,53.8,48.0,99.9,95.6,-42.5,35,1,4,29.81,29.70,13,5,13,0.16
2013-5-29,59.0,51.0,46.0,99.9,97.6,-45.0,3,0,1,29.86,29.64,12,2,12,0.04
2013-5-30,62.0,52.2,45.0,99.9,84.7,-44.4,73,10,2,30.08,29.86,13,4,13,0.01
2013-5-31,63.0,53.0,44.0,99.9,82.0,-23.4,82,22,3,30.22,30.08,13,2,13,0.00
2013-6-1,68.0,56.1,45.0,99.9,69.9,-45.6,82,26,2,30.09,29.98,10,2,10,0.00
2013-6-2,67.0,56.6,46.0,99.9,75.5,-21.4,81,31,4,30.02,29.94,13,3,13,0.03
2013-6-3,70.0,55.8,43.0,99.9,78.7,-40.1,81,20,1,30.04,29.94,9,1,9,0.00
2013-6-4,74.0,58.5,44.0,99.9,79.2,-37.0,72,27,15,30.08,29.93,8,1,8,0.00
2013-6-5,69.0,57.6,47.0,99.9,77.6,-38.3,69,14,1,30.04,29.92,12,2,12,0.00
2013-6-6,70.0,57.5,45.0,99.9,80.2,-16.6,75,29,3,30.01,29.90,13,2,13,0.00
2013-6-7,65.0,55.0,47.0,99.9,76.3,-44.4,44,5,1,30.04,29.90,17,5,17,0.00
2013-6-8,67.0,54.4,43.0,99.9,80.0,-43.1,82,17,2,30.07,29.99,16,3,16,0.00
2013-6-9,64.0,53.5,44.0,99.9,73.4,-49.3,78,23,1,30.02,29.91,17,4,17,0.00
2013-6-10,64.0,53.6,42.0,99.9,77.9,-39.5,74,27,3,29.94,29.82,15,3,15,0.00
2013-6-11,62.0,52.3,47.0,99.9,84.1,-43.1,80,9,1,29.97,29.83,12,4,12,0.00
2013-6-12,64.0,53.6,47.0,99.9,82.1,-28.3,81,19,5,30.05,29.97,12,2,12,0.07
2013-6-13,66.0,55.1,44.0,99.9,85.0,-45.0,77,16,3,30.09,30.00,12,3,12,0.00
2013-6-14,66.0,54.5,46.0,99.9,83.9,-45.6,76,16,2,30.10,29.96,12,4,12,0.00
2013-6-15,71.0,58.0,42.0,99.9,79.0,-25.7,72,27,3,29.96,29.89,14,1,14,0.00
2013-6-16,67.0,57.5,48.0,99.9,71.6,-44.4,64,17,1,30.00,29.89,14,4,14,0.00
2013-6-17,70.0,59.5,49.0,99.9,74.7,-38.9,76,23,2,29.99,29.85,12,2,12,0.12
2013-6-18,71.0,58.5,47.0,99.9,85.0,-24.1,78,16,8,29.92,29.83,9,1,9,0.01
2013-6-19,67.0,56.3,45.0,99.9,75.1,-44.4,78,33,3,29.90,29.81,14,4,14,0.00
2013-6-20,54.0,52.1,51.0,99.9,99.9,99.9,0,0,100,29.97,29.85,14,4,14,0.25
2013-6-21,66.0,56.2,47.0,99.9,79.1,-40.1,56,9,1,30.08,29.97,13,3,13,0.00
2013-6-22,74.0,59.7,46.0,99.9,83.1,-37.0,75,22,6,30.00,29.81,9,1,9,0.00
2013-6-23,68.0,58.7,49.0,99.9,99.9,99.9,0,0,100,29.81,29.61,7,1,7,0.04
2013-6-24,66.0,57.6,52.0,99.9,99.9,99.9,0,0,100,29.70,29.57,12,2,12,0.40
2013-6-25,72.0,59.4,52.0,99.9,91.6,-40.1,70,7,3,29.78,29.64,14,4,14,0.04
2013-6-26,74.0,60.2,53.0,99.9,86.1,-36.4,75,8,1,29.98,29.77,14,4,14,0.01
2013-6-27,71.0,60.5,54.0,99.9,99.9,99.9,0,0,100,30.10,29.96,16,4,16,0.11
2013-6-28,74.0,61.5,49.0,99.9,99.9,99.9,0,0,100,30.09,29.99,6,0,6,0.00
2013-6-29,76.0,65.3,53.0,99.9,78.5,-32.8,61,13,1,30.05,29.92,12,0,12,0.00
2013-6-30,85.0,68.1,51.0,99.9,81.8,-34.0,71,29,1,29.98,29.85,8,0,8,0.00
2013-7-1,78.0,65.2,53.0,99.9,80.7,-41.3,76,32,4,29.97,29.86,10,3,10,0.00
2013-7-2,74.0,61.1,50.0,99.9,81.0,-35.2,80,24,2,30.06,29.94,10,3,10,0.00
2013-7-3,71.0,58.4,48.0,99.9,80.4,-37.6,73,25,4,30.09,29.95,12,3,12,0.00
2013-7-4,68.0,58.1,47.0,99.9,76.0,-43.1,67,19,1,30.05,29.92,12,4,12,0.00
2013-7-5,73.0,59.5,47.0,99.9,83.9,-42.5,76,23,1,29.98,29.89,10,2,10,0.00
2013-7-6,76.0,62.0,48.0,99.9,81.1,-43.1,74,25,4,29.95,29.82,13,3,13,0.00
2013-7-7,74.0,61.0,49.0,99.9,80.3,-43.1,71,26,2,29.93,29.82,9,2,9,0.00
2013-7-8,72.0,58.7,48.0,99.9,89.3,-22.5,81,11,6,30.04,29.86,10,2,10,0.00
2013-7-9,73.0,60.1,49.0,99.9,80.2,-13.2,74,28,11,30.06,29.91,13,2,13,0.00
2013-7-10,67.0,57.0,49.0,99.9,75.9,-45.0,77,14,1,30.00,29.87,20,6,20,0.00
2013-7-11,66.0,57.2,46.0,99.9,70.5,-46.2,82,30,2,30.01,29.88,13,5,13,0.00
2013-7-12,68.0,56.4,46.0,99.9,74.5,-34.9,74,31,5,30.00,29.90,12,2,12,0.00
2013-7-13,76.0,58.7,45.0,99.9,79.6,-38.3,75,26,1,30.13,29.98,10,2,10,0.00
2013-7-14,72.0,59.0,46.0,99.9,78.1,-11.3,71,27,6,30.07,29.94,12,2,12,0.00
2013-7-15,80.0,64.2,46.0,99.9,66.5,-37.0,77,30,3,30.02,29.86,16,4,16,0.00
2013-7-16,83.0,70.1,54.0,99.9,51.7,-13.5,74,50,6,29.90,29.81,14,2,14,0.00
2013-7-17,70.0,63.8,56.0,99.9,62.2,-41.9,79,42,1,30.08,29.83,20,7,20,0.01
2013-7-18,72.0,60.0,50.0,99.9,83.2,-37.6,81,23,1,30.14,30.02,12,3,12,0.00
2013-7-19,71.0,59.8,51.0,99.9,83.6,-41.9,71,15,1,30.08,29.95,13,4,13,0.00
2013-7-20,66.0,56.4,50.0,99.9,93.7,-39.5,27,1,6,30.01,29.87,18,6,18,0.00
2013-7-21,68.0,56.2,50.0,99.9,99.9,99.9,0,0,100,29.92,29.86,14,5,14,0.00
2013-7-22,70.0,58.1,50.0,99.9,93.7,-36.4,40,2,4,30.00,29.86,12,3,12,0.00
2013-7-23,74.0,60.1,50.0,99.9,82.5,-9.5,77,26,9,30.02,29.92,12,3,12,0.00
2013-7-24,75.0,59.6,49.0,99.9,82.1,-30.3,78,26,4,30.02,29.92,12,2,12,0.00
2013-7-25,71.0,57.4,48.0,99.9,86.1,16.6,79,23,34,30.06,29.92,10,2,10,0.00
2013-7-26,72.0,59.4,48.0,99.9,80.3,-30.9,77,27,6,30.10,29.96,12,2,12,0.00
2013-7-27,73.0,59.4,47.0,99.9,77.7,-38.9,82,28,9,30.08,29.90,12,3,12,0.00
2013-7-28,72.0,58.4,47.0,99.9,86.1,-41.9,77,16,1,29.96,29.88,10,2,10,0.00
2013-7-29,67.0,55.6,48.0,99.9,91.3,-10.9,79,11,8,29.94,29.88,12,2,12,0.00
2013-7-30,68.0,55.1,48.0,99.9,90.8,-40.1,39,3,1,30.05,29.91,13,4,13,0.00
2013-7-31,64.0,54.9,50.0,99.9,99.9,99.9,0,0,100,30.02,29.92,16,5,16,0.00
2013-8-1,66.0,56.5,50.0,99.9,89.8,-38.9,34,2,1,29.98,29.92,20,6,20,0.00
2013-8-2,60.0,56.4,55.0,99.9,99.9,99.9,0,0,100,30.04,29.95,14,4,14,0.14
2013-8-3,70.0,59.9,53.0,99.9,89.8,-38.3,37,2,1,30.07,29.97,9,1,9,0.00
2013-8-4,76.0,60.6,48.0,99.9,86.2,-34.6,80,19,1,30.02,29.90,10,1,10,0.00
2013-8-5,73.0,58.6,49.0,99.9,82.3,-35.8,81,24,1,29.99,29.87,10,1,10,0.00
2013-8-6,73.0,57.2,48.0,99.9,88.8,-7.6,77,15,6,29.97,29.86,12,2,12,0.00
2013-8-7,72.0,57.8,49.0,99.9,86.7,-37.0,77,19,2,29.98,29.86,10,2,10,0.00
2013-8-8,75.0,59.9,52.0,99.9,86.2,-23.4,80,17,4,29.98,29.87,12,3,12,0.00
2013-8-9,75.0,59.3,49.0,99.9,84.5,-35.2,78,25,1,29.91,29.80,10,2,10,0.00
2013-8-10,72.0,59.0,51.0,99.9,83.1,-37.6,65,10,3,29.96,29.79,15,4,15,0.00
2013-8-11,66.0,58.0,53.0,99.9,89.7,-41.3,49,4,1,30.01,29.92,15,6,15,0.08
2013-8-12,69.0,58.1,51.0,99.9,87.8,-41.3,80,15,5,30.02,29.92,14,4,14,0.00
2013-8-13,73.0,59.2,50.0,99.9,84.3,-41.3,79,22,1,30.04,29.86,15,2,15,0.00
2013-8-14,74.0,59.2,48.0,99.9,90.8,-10.2,76,11,4,29.92,29.85,12,2,12,0.25
2013-8-15,65.0,59.3,54.0,99.9,99.9,99.9,0,0,100,29.94,29.86,6,1,6,0.03
2013-8-16,75.0,61.5,52.0,99.9,94.2,-33.4,38,1,1,29.97,29.90,12,1,12,0.00
2013-8-17,71.0,61.1,55.0,99.9,88.1,-38.9,35,4,7,30.02,29.92,16,3,16,0.00
2013-8-18,69.0,59.8,51.0,99.9,83.0,-36.4,74,11,1,30.06,29.97,14,3,14,0.00
2013-8-19,71.0,58.5,50.0,99.9,81.9,-37.0,80,24,3,30.06,29.95,16,3,16,0.00
2013-8-20,74.0,59.0,49.0,99.9,83.0,-6.7,74,20,12,30.11,29.99,10,1,10,0.00
2013-8-21,79.0,60.9,45.0,99.9,79.4,-22.7,73,21,3,30.05,29.88,12,1,12,0.00
2013-8-22,79.0,62.4,46.0,99.9,76.4,-31.6,73,27,4,29.91,29.76,9,1,9,0.00
2013-8-23,71.0,60.8,51.0,99.9,85.4,-40.7,82,19,3,29.87,29.76,20,8,20,0.02
2013-8-24,70.0,59.2,53.0,99.9,86.1,-42.5,78,12,3,29.89,29.82,14,3,14,0.04
2013-8-25,72.0,59.5,48.0,99.9,75.8,-43.1,67,26,1,29.92,29.81,8,1,8,0.00
2013-8-26,73.0,59.3,48.0,99.9,88.5,-41.9,73,7,1,29.88,29.81,20,4,20,0.00
2013-8-27,73.0,62.1,55.0,99.9,86.5,-36.4,51,6,2,29.88,29.78,15,4,15,0.10
2013-8-28,74.0,61.6,55.0,99.9,99.9,99.9,0,0,100,29.89,29.79,10,1,10,0.09
2013-8-29,68.0,62.0,55.0,99.9,99.9,99.9,0,0,100,29.91,29.82,20,6,20,0.25
2013-8-30,75.0,62.2,52.0,99.9,88.0,-34.6,72,15,4,30.10,29.90,12,2,12,0.05
2013-8-31,74.0,60.5,49.0,99.9,87.8,-35.2,72,17,5,29.99,29.80,17,2,17,0.00
2013-9-1,74.0,60.5,50.0,99.9,88.3,-39.5,67,14,2,29.86,29.80,12,2,12,0.00
2013-9-2,73.0,59.2,51.0,99.9,93.9,-38.9,37,2,1,29.88,29.80,9,1,9,0.02
2013-9-3,72.0,58.7,50.0,99.9,99.9,99.9,0,0,100,29.98,29.86,8,0,8,0.26
2013-9-4,70.0,59.2,52.0,99.9,99.9,37.0,0,0,100,30.00,29.93,12,1,12,0.01
2013-9-5,66.0,57.1,50.0,99.9,99.9,99.9,0,0,100,29.98,29.86,12,1,12,0.14
2013-9-6,68.0,60.7,55.0,99.9,99.9,35.9,0,0,100,30.01,29.86,14,3,14,0.04
2013-9-7,72.0,61.2,55.0,99.9,97.6,-34.0,11,0,2,30.03,29.96,9,0,9,0.00
2013-9-8,73.0,60.1,49.0,99.9,94.7,-23.4,37,2,21,30.06,29.96,9,1,9,0.01
2013-9-9,74.0,59.1,51.0,99.9,26.8,-34.0,46,33,4,30.02,29.92,8,1,8,0.00
2013-9-10,77.0,60.6,46.0,99.9,47.6,-27.7,66,23,2,29.98,29.86,8,0,8,0.00
2013-9-11,85.0,66.2,53.0,99.9,80.6,-39.5,66,19,4,29.98,29.86,7,0,7,0.00
2013-9-12,75.0,59.1,50.0,99.9,67.7,-27.0,46,19,7,29.94,29.85,12,2,12,0.00
2013-9-13,61.0,57.1,54.0,99.9,99.4,-8.1,30,0,28,29.91,29.83,15,6,15,0.00
2013-9-14,70.0,57.2,49.0,99.9,99.9,-13.5,0,0,100,29.84,29.71,8,1,8,0.00
2013-9-15,59.0,54.0,49.0,99.9,96.6,-44.4,23,1,1,29.76,29.69,14,3,14,0.26
2013-9-16,63.0,57.0,53.0,99.9,98.1,-43.8,29,0,1,29.88,29.76,12,3,12,0.13
2013-9-17,65.0,55.3,51.0,99.9,64.7,3.7,45,20,28,29.85,29.80,10,2,10,0.00
2013-9-18,67.0,56.5,50.0,99.9,27.3,-44.4,44,30,2,30.00,29.84,12,2,12,0.00
2013-9-19,73.0,58.3,50.0,99.9,28.5,-42.5,44,24,1,29.95,29.71,15,4,15,0.00
2013-9-20,69.0,55.2,45.0,45.9,32.3,11.1,45,42,32,29.71,29.62,12,1,12,0.02
2013-9-21,65.0,56.8,50.0,99.9,18.1,-40.1,45,25,1,29.73,29.63,13,3,13,0.09
2013-9-22,60.0,54.4,50.0,99.9,30.6,-45.6,45,39,1,29.68,29.51,37,8,37,0.15
2013-9-23,58.0,51.3,44.0,99.9,23.2,-47.5,44,21,1,29.86,29.68,12,2,12,0.25
2013-9-24,59.0,51.0,46.0,99.9,34.6,-34.9,44,23,2,29.86,29.79,10,2,10,0.39
2013-9-25,62.0,51.2,45.0,99.9,31.3,-32.9,44,25,10,29.92,29.80,13,2,13,0.30
2013-9-26,62.0,50.1,43.0,99.9,42.1,-45.0,41,6,1,30.04,29.91,12,1,12,0.00
2013-9-27,55.0,51.8,46.0,99.9,88.5,-48.7,43,5,1,29.98,29.76,14,6,14,0.13
2013-9-28,58.0,52.6,46.0,99.9,64.5,4.2,45,15,13,29.76,29.35,23,8,23,0.71
2013-9-29,56.0,51.8,50.0,31.7,26.9,9.3,42,38,31,29.51,29.18,33,11,33,0.55
2013-9-30,52.0,48.9,44.0,30.7,22.4,-11.4,44,36,9,29.79,29.35,22,6,22,0.36
2013-10-1,56.0,49.8,44.0,99.9,23.5,-45.0,43,33,1,29.97,29.79,15,6,15,0.16
2013-10-2,51.0,48.8,47.0,27.5,8.6,-48.7,43,22,7,30.05,29.94,15,4,15,0.22
2013-10-3,57.0,48.7,41.0,99.9,60.0,-49.9,13,3,1,30.26,30.05,10,1,10,0.01
2013-10-4,59.0,48.7,39.0,99.9,99.9,99.9,0,0,100,30.31,30.19,7,1,7,0.00
2013-10-5,65.0,53.6,46.0,99.9,85.3,-40.7,72,13,2,30.20,30.01,9,1,9,0.00
2013-10-6,67.0,53.3,45.0,99.9,84.9,-49.9,65,4,1,30.00,29.76,18,2,18,0.01
2013-10-7,58.0,53.0,50.0,99.9,99.9,5.8,0,0,100,29.89,29.78,21,8,21,0.19
2013-10-8,58.0,50.6,45.0,99.9,83.7,-43.8,73,13,1,29.97,29.86,17,4,17,0.06
2013-10-9,59.0,47.9,38.0,99.9,71.0,-53.7,44,16,1,30.02,29.86,9,1,9,0.00
2013-10-10,56.0,48.0,40.0,99.9,76.3,-49.3,43,9,2,29.94,29.84,12,0,12,0.00
2013-10-11,55.0,46.4,38.0,99.9,81.1,-30.9,33,6,13,30.04,29.93,6,0,6,0.01
2013-10-12,58.0,48.6,40.0,99.9,99.9,99.9,0,0,100,30.06,29.96,15,2,15,0.02
2013-10-13,60.0,46.7,38.0,99.9,91.3,-30.3,70,7,2,30.19,30.05,9,1,9,0.00
2013-10-14,59.0,46.1,37.0,99.9,99.6,21.3,32,0,32,30.28,30.17,12,1,12,0.01
2013-10-15,60.0,48.2,39.0,99.9,99.9,99.9,0,0,100,30.21,30.04,9,1,9,0.00
2013-10-16,59.0,49.1,41.0,99.9,99.9,99.9,0,0,100,30.09,30.03,18,3,18,0.00
2013-10-17,59.0,47.6,40.0,99.9,98.5,14.7,36,0,25,30.15,30.05,8,1,8,0.00
2013-10-18,58.0,47.1,43.0,99.9,99.5,-24.2,4,0,4,30.12,30.02,6,1,6,0.01
2013-10-19,53.0,47.4,44.0,99.9,99.9,8.1,0,0,100,30.07,30.02,9,1,9,0.01
2013-10-20,51.0,48.1,46.0,99.9,99.9,99.9,0,0,100,30.08,30.03,9,2,9,0.00
2013-10-21,52.0,47.8,45.0,99.9,83.6,-25.6,32,6,4,30.05,30.00,9,1,9,0.00
2013-10-22,56.0,47.3,43.0,99.9,99.9,99.9,0,0,100,30.00,29.93,7,1,7,0.00
2013-10-23,57.0,45.5,40.0,99.9,99.9,99.9,0,0,100,29.96,29.88,5,0,5,0.02
2013-10-24,50.0,43.7,39.0,99.9,99.9,99.9,0,0,100,29.98,29.90,9,1,9,0.01
2013-10-25,54.0,48.5,43.0,99.9,99.9,-33.6,0,0,100,30.16,29.99,10,2,10,0.01
2013-10-26,57.0,48.4,44.0,99.9,99.6,-16.4,13,0,13,30.19,30.05,8,0,8,0.00
2013-10-27,57.0,52.2,46.0,99.9,77.7,-48.7,66,12,1,30.05,29.87,32,8,32,0.11
2013-10-28,57.0,53.1,50.0,35.3,27.4,8.2,48,37,17,29.93,29.85,29,14,29,0.00
2013-10-29,54.0,45.0,36.0,33.1,22.0,11.0,45,40,34,29.94,29.84,22,2,22,0.00
2013-10-30,51.0,46.5,40.0,29.3,23.5,-11.6,45,40,34,30.00,29.89,15,4,15,0.00
2013-10-31,51.0,48.4,46.0,99.9,24.3,-48.1,40,30,3,30.10,29.95,12,3,12,0.17
2013-11-1,52.0,49.7,48.0,30.7,14.7,-12.6,44,29,8,30.11,29.74,9,1,9,0.12
2013-11-2,53.0,46.6,41.0,31.6,23.9,12.6,45,41,24,29.78,29.40,30,7,30,0.65
2013-11-3,53.0,42.5,34.0,99.9,80.7,-52.4,59,8,1,29.96,29.78,12,1,12,0.00
2013-11-4,45.0,41.0,34.0,99.9,99.9,-16.4,0,0,100,30.05,29.92,12,3,12,0.02
2013-11-5,45.0,41.6,37.0,99.9,98.0,-29.2,19,0,6,30.33,29.92,9,1,9,0.11
2013-11-6,50.0,45.5,38.0,99.9,99.9,-29.6,0,0,100,30.46,30.11,15,2,15,0.02
2013-11-7,52.0,48.6,47.0,99.9,86.2,-36.9,35,4,2,30.22,29.64,24,7,24,0.13
2013-11-8,52.0,47.3,43.0,29.0,21.4,17.1,42,36,30,30.39,29.99,13,4,13,0.00
2013-11-9,50.0,44.5,41.0,28.6,21.9,16.7,49,40,37,30.46,30.04,7,1,7,0.00
2013-11-10,48.0,44.9,42.0,27.5,20.4,4.6,50,38,21,30.55,30.23,10,2,10,0.00
2013-11-11,57.0,48.7,40.0,34.4,27.7,17.6,50,44,39,30.62,29.98,9,2,9,0.00
2013-11-12,57.0,51.7,46.0,99.9,33.8,-24.9,49,38,13,30.66,30.08,26,6,26,0.01
2013-11-13,53.0,48.8,44.0,99.9,94.8,-34.9,29,1,2,30.82,30.23,13,3,13,0.04
2013-11-14,55.0,45.8,40.0,99.9,82.6,-49.3,42,5,9,30.65,30.00,5,0,5,0.08
2013-11-15,46.0,43.4,39.0,99.9,78.9,-40.2,51,10,16,32.34,30.34,21,6,21,0.58
2013-11-16,42.0,41.0,40.0,31.1,25.4,16.7,65,54,45,33.05,31.84,8,0,8,0.02
2013-11-17,41.0,41.0,41.0,25.6,25.6,25.6,54,54,54,31.84,31.84,0,0,0,0.00
2013-11-18,41.0,41.0,41.0,25.6,25.6,25.6,54,54,54,31.84,31.84,0,0,0,0.00
2013-11-19,41.0,41.0,41.0,25.6,25.6,25.6,54,54,54,31.84,31.84,0,0,0,0.00
2013-11-20,41.0,41.0,41.0,25.6,25.6,25.6,54,54,54,31.84,31.84,0,0,0,0.00
2013-11-24,51.0,42.1,36.0,99.9,97.8,-47.5,13,0,2,30.09,30.03,5,0,5,0.00
2013-11-25,49.0,38.6,34.0,99.9,99.4,-55.5,3,0,3,30.16,30.08,8,0,8,0.00
2013-11-26,49.0,39.8,32.0,99.9,99.9,99.9,0,0,100,30.08,29.96,10,0,10,0.01
2013-11-27,54.0,41.3,36.0,99.9,99.6,-1.0,20,0,20,29.96,29.87,6,0,6,0.00
2013-11-28,53.0,42.3,35.0,99.9,99.1,-22.9,8,0,5,30.02,29.89,7,0,7,0.02
2013-11-29,53.0,45.8,44.0,99.9,88.7,-50.6,32,3,8,30.14,30.02,12,3,12,0.06
2013-11-30,47.0,45.5,44.0,99.9,68.3,-51.2,30,1,1,30.13,29.94,15,6,15,0.27
2013-12-1,50.0,46.4,39.0,99.9,78.3,-49.3,34,7,2,29.94,29.68,23,8,23,0.25
2013-12-2,47.0,37.8,32.0,26.2,15.8,8.6,50,41,34,29.95,29.70,32,6,32,0.04
2013-12-3,39.0,33.1,30.0,18.4,14.6,10.7,50,46,43,30.13,29.95,33,15,33,0.00
2013-12-4,37.0,30.7,23.0,16.2,12.1,4.8,51,46,43,30.17,30.09,24,10,24,0.00
2013-12-5,33.0,27.5,22.0,13.4,9.0,3.4,51,45,44,30.11,30.00,15,3,15,0.00
2013-12-6,27.0,22.8,19.0,11.3,5.4,2.5,52,47,45,30.08,30.01,30,15,30,0.00
2013-12-7,27.0,20.5,15.0,8.9,3.7,-1.2,49,48,46,30.17,30.07,26,8,26,0.00
2013-12-8,34.0,24.8,18.0,14.3,6.8,1.1,49,46,44,30.28,30.15,10,3,10,0.00
2013-12-9,33.0,30.5,28.0,13.4,11.6,9.4,45,45,43,30.29,30.23,13,6,13,0.00
2013-12-10,37.0,34.3,32.0,16.0,13.2,10.1,45,41,39,30.24,30.19,13,5,13,0.00
2013-12-11,40.0,35.2,30.0,18.7,13.2,7.4,45,40,36,30.19,29.96,12,1,12,0.00
2013-12-12,43.0,38.5,31.0,99.9,34.5,-55.5,42,24,3,29.97,29.86,18,5,18,0.05
2013-12-13,45.0,43.1,41.0,99.9,29.0,-52.4,37,21,1,30.22,29.97,12,4,12,0.02
2013-12-14,46.0,44.7,43.0,99.9,83.4,-51.2,22,2,1,30.22,30.12,14,4,14,0.01
2013-12-15,50.0,44.9,36.0,99.9,65.9,-55.5,41,9,3,30.21,30.12,16,6,16,0.03
2013-12-16,50.0,39.3,34.0,99.9,84.4,-55.5,30,2,2,30.27,30.07,10,1,10,0.00
2013-12-17,44.0,39.3,33.0,99.9,97.8,-56.8,21,0,1,30.07,29.94,13,4,13,0.01
2013-12-18,47.0,39.4,32.0,99.9,62.0,-29.2,45,18,4,30.03,29.90,21,4,21,0.06
2013-12-19,38.0,34.1,31.0,19.1,13.7,9.2,48,43,40,30.15,30.00,22,5,22,0.00
2013-12-20,37.0,33.4,31.0,99.9,73.5,-58.7,40,10,3,30.00,29.63,20,7,20,0.41
2013-12-21,40.0,36.9,32.0,99.9,99.9,-56.8,0,0,100,30.00,29.75,7,0,7,0.13
2013-12-22,44.0,41.0,39.0,99.9,99.9,99.9,0,0,100,30.11,30.00,10,3,10,0.53
2013-12-23,50.0,44.9,36.0,99.9,99.9,-12.0,0,0,100,30.26,29.98,20,6,20,0.10
2013-12-24,47.0,37.9,29.0,99.9,99.9,8.5,0,0,100,30.37,30.26,9,0,9,0.00
2013-12-25,46.0,37.4,29.0,99.9,67.2,32.9,89,42,71,30.28,30.19,6,0,6,0.01
2013-12-26,47.0,40.3,35.0,41.4,37.6,34.0,99,90,72,30.19,30.01,9,1,9,0.01
2013-12-27,49.0,40.6,33.0,46.8,40.0,32.8,100,98,87,30.15,29.94,20,2,20,0.24
2013-12-28,44.0,38.9,34.0,44.0,38.9,34.0,100,100,99,30.30,30.15,6,0,6,0.01
2013-12-29,44.0,40.3,33.0,42.7,39.8,33.0,100,98,93,30.25,30.13,12,2,12,0.01
2013-12-30,45.0,42.2,40.0,44.5,41.9,39.7,100,99,95,30.13,29.97,12,2,12,0.02
2013-12-31,46.0,44.0,42.0,46.0,43.9,42.0,100,100,97,30.19,30.02,10,2,10,0.03
2014-1-1,46.0,43.1,40.0,46.0,43.0,40.0,100,100,98,30.21,30.08,6,0,6,0.03
2014-1-2,46.0,43.9,41.0,46.0,43.5,37.1,100,99,87,30.08,29.78,16,4,16,0.43